CAPE
0 0 0 0 0 0 0 0 0 0 0 4 28 4 0 0 0 0 0 0 0 0 0 0 0 0 0 0 0 0 0 0 0 0 0 0 0 0 0 0 0 0 0
0 0 0 0 0 2 3 1 3 3 1 1 0 0 0 0 0 0 0 0 0 0 0 0 0 0 0 0 0 0 0 0 0 0 0 0 0 0 0 0 0 0 0
0 0 0 0 2 3 3 4 3 3 3 2 0 0 1 1 2 3 3 0 0 0 0 0 0 0 0 0 0 0 0 0 0 0 0 0 0 0 0 0 0 0 0
0 0 1 1 2 3 2 2 0 1 1 1 1 0 1 1 0 0 0 0 0 1 1 0 0 0 0 0 0 0 0 0 0 0 0 0 0 0 0 0 0 0 0
0 0 2 1 2 0 1 1 0 0 0 0 0 0 0 0 1 1 2 2 3 2 1 1 0 0 1 1 0 0 0 0 0 0 1 1 0 0 0 0 0 0 0
1 0 9 7 1 2 0 0 0 0 0 0 0 0 1 2 1 3 1 1 0 0 0 0 0 0 0 3 2 1 0 0 0 0 0 0 0 0 0 0 0 0 0
0 2 1 1 2 1 1 0 0 0 0 0 0 0 0 2 0 0 0 0 0 0 0 0 0 0 0 0 0 0 0 0 0 0 0 0 0 0 0 0 1 1 0
0 0 0 0 1 1 0 0 0 0 0 0 0 0 0 0 0 0 0 0 0 0 0 0 0 0 0 0 0 0 0 0 0 0 0 0 0 1 0 1 0 0 0
0 0 0 0 0 1 1 0 0 0 0 0 0 0 0 0 0 0 0 0 0 0 0 1 0 0 0 0 0 0 0 0 0 0 1 0 0 0 0 0 0 0 1
0 0 0 0 0 1 0 0 0 0 0 0 0 0 0 0 0 0 0 0 0 0 1 0 0 0 0 0 0 0 0 0 0 0 0 0 0 0 0 1 2 0 0
0 0 0 0 0 0 0 0 0 0 0 0 0 0 0 0 0 0 1 4 0 0 0 0 0 0 0 0 0 0 0 0 0 0 0 0 0 0 0 0 1 0 1
0 0 0 0 0 0 0 0 0 0 0 0 0 0 0 0 0 0 0 0 0 0 0 0 0 0 0 0 0 0 0 0 0 0 0 1 0 1 1 1 1 1 1
0 0 0 0 0 0 0 0 0 0 0 0 0 0 0 0 0 0 0 0 0 0 0 0 0 0 0 0 0 0 0 0 0 1 1 1 1 1 0 0 1 1 1
0 0 0 0 0 0 0 0 0 0 0 0 0 0 1 0 0 0 0 0 0 0 0 0 0 0 0 0 0 1 1 1 0 1 1 0 1 0 0 1 0 1 1
0 0 0 0 0 0 0 0 0 0 0 0 0 0 0 0 0 0 0 0 0 0 0 0 0 0 0 0 0 0 0 0 0 1 0 0 0 0 0 0 0 1 1
0 0 0 0 0 0 0 0 0 0 0 0 0 0 0 0 0 0 0 0 0 0 0 0 0 0 0 0 0 0 0 0 0 0 0 0 1 1 1 0 0 0 0
0 0 0 0 0 0 0 0 0 0 0 0 0 0 0 0 0 0 0 0 0 0 0 0 0 0 0 0 0 0 0 0 0 0 0 1 1 0 1 1 1 1 1
0 0 0 1 0 0 0 0 0 0 0 0 0 0 0 0 0 0 0 0 0 0 0 0 0 0 0 0 0 0 0 0 0 0 0 0 0 0 0 0 0 1 1
0 0 0 0 0 0 0 0 0 0 0 0 0 0 0 0 0 0 0 0 0 0 0 0 0 0 0 0 0 0 0 0 0 0 0 0 0 0 0 0 0 0 0
0 0 0 0 0 0 0 0 0 0 0 0 0 0 0 0 0 0 0 0 0 0 0 0 0 0 0 0 0 0 0 0 0 0 0 0 0 0 0 0 0 0 0
0 0 0 0 0 0 0 0 0 0 0 0 0 0 0 0 0 0 0 0 0 0 0 0 0 0 0 0 0 0 0 0 0 0 0 0 0 0 0 0 1 0 0
0 0 0 0 0 0 0 0 0 0 0 0 0 0 0 0 0 0 0 0 0 0 0 0 0 0 0 0 0 0 0 0 0 0 0 1 8 3 0 0 0 0 0
0 0 0 0 0 0 0 0 0 0 0 0 0 0 0 0 0 0 0 0 0 0 0 0 0 0 0 0 0 0 0 0 0 0 0 6 7 5 0 0 0 0 0
0 0 0 0 0 0 0 0 0 0 0 0 0 0 0 0 0 0 0 0 0 0 0 0 0 0 0 0 0 0 0 0 0 0 0 4 19 5 0 0 0 0 0
0 0 0 0 0 0 0 0 0 0 0 0 0 0 0 0 0 0 0 0 0 0 0 0 0 0 0 0 0 0 0 0 0 0 0 5 26 16 0 0 0 0 0
0 0 0 0 0 0 0 0 0 0 0 0 0 0 0 0 0 0 0 0 0 0 0 0 0 0 0 0 0 0 0 0 0 0 0 0 9 9 1 0 0 0 0
CIN
0 0 0 0 0 0 0 0 0 0 0 -61 -85 -13 0 0 0 0 0 0 0 0 0 0 0 0 0 0 0 0 0 0 0 0 0 0 0 0 0 0 0 0 0
0 0 0 0 0 0 0 -1 0 0 0 0 0 0 0 0 0 0 0 0 0 0 0 0 0 0 0 0 0 0 0 0 0 0 0 0 0 0 0 0 0 0 0
0 0 0 0 0 0 0 0 0 0 0 0 0 0 0 0 0 0 0 0 0 0 0 0 0 0 0 0 0 0 0 0 0 0 0 0 0 0 0 0 0 0 0
0 0 0 0 0 0 0 0 0 0 0 0 0 0 0 0 0 0 0 0 0 0 0 0 0 0 0 0 0 0 0 0 0 0 0 0 0 0 0 0 0 0 0
0 0 -1 0 0 0 0 0 0 0 0 0 0 0 0 0 0 0 0 0 0 0 0 0 0 0 0 -1 0 0 0 0 0 0 0 0 0 0 0 -1 0 -6 0
0 -1 -1 -7 0 0 0 0 0 0 0 0 0 0 0 0 0 0 0 0 0 0 0 0 0 0 0 0 0 -4 0 0 0 0 0 0 0 0 0 0 0 0 0
0 -2 0 0 0 0 0 0 0 0 0 0 0 0 0 0 0 0 0 0 0 0 0 0 0 0 0 0 0 0 0 -10 0 0 0 0 -3 -4 0 0 0 0 -2
0 0 0 0 0 0 0 0 0 0 0 0 0 0 0 0 0 0 0 0 0 0 0 0 0 0 0 0 0 0 0 0 0 0 0 0 0 -13 0 0 0 0 0
0 0 0 0 0 0 0 0 0 0 0 0 0 0 0 0 0 0 0 0 0 0 0 -2 0 0 0 0 0 0 0 0 0 0 0 0 0 0 -1 -1 0 0 -4
0 0 0 0 0 0 0 0 0 0 0 0 0 0 0 0 0 0 0 -6 -1 -2 -2 0 0 0 0 0 0 0 0 0 0 0 0 0 0 0 0 -14 -15 -1 0
0 0 0 0 0 0 0 0 0 0 0 0 0 0 0 0 0 0 -4 -1 0 0 0 0 0 0 0 0 0 0 0 0 0 0 0 0 0 0 0 0 -15 0 -6
0 0 0 0 0 0 0 0 0 0 0 0 0 0 0 0 0 0 0 0 0 0 0 0 0 0 0 0 0 0 0 0 0 0 0 0 0 0 0 0 0 0 0
0 0 0 0 0 0 0 0 0 0 0 0 0 0 0 0 0 0 0 0 0 0 0 0 0 0 0 0 0 0 0 0 0 0 0 0 0 0 0 0 0 0 0
0 0 0 0 0 0 0 0 0 0 0 0 0 0 0 0 0 0 0 0 0 0 0 0 0 0 0 0 0 0 0 0 0 0 0 0 0 0 0 0 0 0 0
0 0 0 0 0 0 0 0 0 0 0 0 0 0 0 0 0 0 0 0 0 0 0 0 0 0 0 0 0 0 0 0 0 0 0 0 0 0 0 0 0 0 0
0 0 0 0 0 0 0 0 0 0 0 0 0 0 0 0 0 0 0 0 0 0 0 0 0 0 0 0 0 0 0 0 0 0 0 0 0 0 0 0 0 0 0
0 0 0 0 0 0 0 0 0 0 0 0 0 0 0 0 0 0 0 0 0 0 0 0 0 0 0 0 0 0 0 0 0 0 0 0 0 0 0 0 0 0 0
0 0 0 -8 -4 -17 0 0 0 0 0 0 0 0 0 0 0 -5 0 0 0 0 0 0 0 0 0 0 0 0 0 0 0 0 0 0 0 0 0 0 0 0 0
0 0 0 0 0 0 0 0 0 0 0 0 0 0 0 0 0 0 0 0 0 0 0 0 0 0 0 0 0 0 0 0 0 0 0 0 0 0 0 0 0 0 0
0 0 0 0 0 0 0 0 0 0 0 0 0 0 0 0 0 0 0 0 0 0 0 0 0 0 0 0 0 0 0 0 0 0 0 0 0 0 0 0 0 0 0
0 0 0 0 0 0 0 0 0 0 0 0 0 0 0 0 0 0 0 0 0 0 0 0 0 0 0 0 0 0 0 0 0 0 -1 -1 0 0 0 0 0 0 0
0 0 0 0 0 0 0 0 0 0 0 0 0 0 0 0 0 0 0 0 0 0 0 0 0 0 0 0 0 0 0 0 0 0 0 -13 -20 -21 0 0 0 0 0
0 0 0 0 0 0 0 0 0 0 0 0 0 0 0 0 0 0 0 0 0 0 0 0 0 0 0 0 0 0 0 0 0 0 0 -40 -34 -43 -16 0 0 0 0
0 -1 0 0 0 0 0 0 0 0 0 0 0 0 0 0 0 0 0 0 0 0 0 0 0 0 0 0 0 0 0 0 0 0 0 -66 -33 -49 0 0 0 0 0
0 0 0 0 0 0 0 0 0 0 0 0 0 0 0 0 0 0 0 0 0 0 0 0 0 0 0 0 0 0 0 0 0 0 0 -76 -36 -39 0 0 0 0 0
-1 0 0 0 0 0 0 0 0 0 0 0 0 0 0 0 0 0 0 0 0 0 0 0 0 0 0 0 0 0 0 0 0 0 0 0 -42 -43 -73 0 0 0 0
Wind_Speed
45 45 45 44 43 41 40 38 36 34 31 27 22 22 23 24 24 24 23 19 16 15 15 14 14 14 14 16 17 18 19 20 21 19 20 22 24 28 28 28 29 31 32
44 45 45 47 48 44 41 40 37 31 29 26 22 21 22 23 23 21 19 18 15 14 13 11 12 14 15 17 19 20 21 22 22 23 24 24 25 25 26 28 29 30 32
45 45 47 49 49 44 39 38 36 32 28 26 25 24 23 22 21 20 17 17 12 11 11 11 12 14 17 19 21 22 22 22 22 23 23 23 22 23 25 26 28 28 29
43 45 48 47 44 40 37 36 36 32 31 28 27 27 26 23 20 17 15 16 13 13 14 16 17 19 22 21 23 21 20 21 20 20 21 22 21 23 24 25 28 26 26
44 45 44 41 38 37 35 36 35 34 33 30 29 31 28 26 24 19 18 18 18 17 18 18 22 23 22 20 18 17 17 18 18 19 20 20 22 22 22 22 24 25 21
43 43 40 37 34 34 34 34 35 34 33 32 31 30 29 27 26 22 19 18 19 19 20 20 20 22 21 20 19 17 17 18 18 19 19 20 20 19 21 23 23 22 20
40 41 39 34 32 32 33 33 35 36 35 35 34 32 29 27 26 23 20 18 19 19 21 22 21 21 20 19 19 18 19 19 19 19 19 19 19 19 21 22 22 21 19
37 38 37 35 33 30 31 33 34 35 35 34 33 32 32 29 26 24 21 20 20 20 22 21 20 20 20 20 19 19 20 21 20 19 17 15 15 17 18 18 20 20 20
37 36 36 34 32 29 31 32 33 34 34 34 33 33 32 31 29 27 24 22 21 21 20 19 19 19 20 21 21 22 22 23 22 17 17 18 18 17 16 18 23 24 21
34 34 34 33 31 30 30 32 33 33 33 32 33 33 32 31 29 27 26 24 23 21 19 17 18 20 21 20 21 17 24 25 24 23 21 20 19 19 19 17 16 16 16
31 33 35 33 31 29 29 32 33 33 33 33 33 33 34 32 18 19 18 23 24 24 21 17 16 13 11 6 7 20 23 16 24 19 9 11 20 18 15 13 13 13 13
31 34 36 35 32 30 30 31 32 33 34 34 34 34 28 22 6 11 11 16 30 25 11 11 9 6 5 4 11 7 25 27 21 16 17 15 11 10 12 12 13 13 12
31 35 35 36 34 33 34 33 33 33 34 32 31 30 24 22 14 4 5 9 12 17 16 15 15 8 3 4 2 0 7 15 16 9 12 3 8 11 13 14 13 13 11
30 32 33 34 34 33 32 30 30 30 29 29 27 22 16 13 12 12 12 14 13 17 17 16 17 7 3 5 8 7 10 11 13 13 13 12 10 5 6 12 13 15 14
28 29 30 30 31 30 29 29 29 29 26 22 19 17 15 15 13 14 18 18 20 19 19 13 5 4 3 4 6 6 8 9 13 13 12 11 12 12 12 12 13 14 15
26 27 28 28 27 26 26 26 25 24 22 22 15 13 15 12 11 12 16 17 20 19 21 17 10 7 7 7 7 6 6 8 13 14 14 14 14 14 15 14 15 16 16
23 24 25 25 25 25 25 26 26 25 23 21 10 11 13 12 11 16 16 20 20 22 20 19 14 10 8 9 13 12 11 7 7 12 14 15 15 15 14 14 14 15 14
23 23 24 24 25 25 25 25 26 26 24 15 12 10 10 11 14 9 17 19 18 15 17 15 11 10 9 9 8 11 13 12 12 13 14 15 17 16 16 15 15 15 15
25 25 26 26 26 27 26 26 25 25 19 14 8 8 10 11 12 11 19 23 18 15 11 11 10 10 9 10 9 10 10 10 12 14 14 14 14 16 16 15 14 13 14
27 27 26 26 26 28 27 27 26 24 20 14 9 6 9 15 11 14 17 19 21 15 11 9 9 8 7 7 7 7 7 11 10 11 13 14 16 13 16 13 12 15 14
25 26 26 26 26 27 27 27 25 24 22 16 11 9 14 18 16 16 17 18 17 15 13 11 10 7 6 5 3 3 2 4 7 9 11 13 15 15 14 12 12 16 18
25 26 26 26 26 27 27 26 26 26 24 19 8 4 6 16 17 17 19 17 14 14 13 14 13 9 7 5 3 2 3 4 4 6 8 10 15 16 14 17 18 20 21
25 26 25 26 26 25 25 25 25 27 26 23 21 10 8 5 5 8 13 11 10 9 8 9 10 8 7 5 4 3 1 2 4 7 9 10 15 18 20 22 22 24 25
24 24 24 24 24 23 23 24 24 25 26 26 25 24 27 23 20 14 3 4 3 5 6 6 5 6 7 8 4 4 4 2 6 8 11 13 16 21 22 21 21 21 19
23 22 23 23 23 23 22 22 23 23 22 22 23 24 22 25 18 18 11 7 2 2 3 4 4 5 9 10 11 9 8 6 3 6 10 15 19 21 21 21 22 23 23
22 21 21 21 22 21 22 21 20 20 19 19 18 19 22 27 23 15 16 16 12 7 8 2 4 9 11 12 14 13 14 14 8 6 9 19 20 20 20 20 21 20 20
Wind_Direction
356 355 355 353 352 350 347 345 340 338 339 342 346 343 331 324 317 309 307 306 307 308 311 316 321 322 323 324 325 325 323 320 315 320 318 319 315 314 314 314 313 310 308
356 355 355 351 349 350 350 350 349 345 345 351 354 351 343 333 322 318 309 307 315 309 311 318 324 328 327 327 328 328 325 325 321 316 316 317 320 320 319 317 316 314 312
355 355 353 352 352 353 357 359 358 358 356 356 360 3 359 351 337 331 321 323 318 328 328 337 334 336 329 330 326 327 327 329 330 325 322 326 328 329 326 324 322 321 321
357 356 353 356 1 2 6 12 16 15 13 4 1 8 8 6 1 357 334 334 343 335 336 316 328 334 328 331 326 329 333 334 339 339 335 334 334 333 332 331 328 331 329
356 354 357 3 12 18 20 24 26 22 23 11 8 5 4 5 358 350 335 315 324 340 336 328 324 333 337 341 349 346 351 352 353 354 348 346 342 343 345 348 346 345 347
356 358 360 7 19 20 22 25 29 25 20 18 15 6 0 1 6 355 349 335 333 344 338 338 341 344 344 350 355 4 9 8 6 2 359 354 357 2 2 358 360 3 0
5 4 7 12 26 28 26 25 25 25 26 24 25 24 2 357 2 6 1 352 349 345 344 340 346 353 5 12 11 15 14 12 11 7 3 7 7 12 12 14 15 19 25
12 12 16 19 20 30 28 28 25 22 22 21 22 26 34 15 7 6 1 349 357 350 2 5 6 13 8 13 18 18 15 11 12 17 27 35 39 39 41 45 45 53 59
16 21 25 24 28 34 29 26 24 23 26 28 30 28 28 22 16 17 13 7 5 8 7 14 6 9 13 20 18 9 5 7 19 56 55 53 59 82 99 87 43 38 79
25 32 29 30 32 31 35 32 33 35 37 38 34 30 25 23 10 9 14 22 20 18 11 359 358 9 11 2 2 330 359 11 18 31 47 79 93 97 99 109 114 112 117
37 35 31 32 34 39 41 35 36 37 39 42 46 47 39 25 350 351 352 14 28 32 25 3 355 337 322 261 159 70 49 83 33 2 307 127 99 110 133 144 141 143 148
40 35 32 34 37 41 45 48 51 51 46 47 50 54 71 83 7 353 357 4 65 75 133 138 144 163 172 184 112 53 24 44 12 347 348 340 153 171 160 154 149 155 159
44 39 41 42 47 53 56 59 60 57 57 64 68 70 81 86 97 63 90 113 119 116 112 110 107 130 157 149 314 209 134 114 112 131 342 283 162 162 158 152 157 157 156
50 49 53 55 58 66 70 70 68 70 75 73 77 83 90 94 97 103 106 108 110 104 104 107 110 126 120 120 120 121 121 118 117 123 129 141 155 171 171 159 157 150 148
57 58 64 66 68 73 73 72 73 76 81 87 88 93 92 96 100 102 97 97 98 101 103 107 98 108 94 118 121 119 122 120 116 122 128 134 140 145 148 152 153 151 151
64 67 71 71 75 78 77 79 85 88 89 88 93 97 106 100 94 90 95 98 98 102 99 101 95 87 97 105 112 120 119 114 118 119 121 125 129 141 146 150 150 148 148
73 75 76 76 78 80 79 82 85 86 90 92 88 93 97 97 89 100 95 96 96 99 100 98 99 93 94 102 106 108 114 114 117 123 123 124 129 136 143 145 150 152 155
79 82 79 79 80 83 82 85 88 86 91 101 107 97 96 94 95 85 95 97 93 93 94 96 98 101 106 109 110 110 112 112 115 115 116 122 126 135 141 144 146 150 154
79 83 82 81 79 81 81 85 92 92 105 112 119 104 93 100 96 89 92 91 93 88 84 82 85 93 92 93 106 124 127 127 125 118 119 126 128 135 142 150 154 159 158
80 82 83 84 83 83 83 85 91 95 108 118 122 111 110 100 94 91 92 92 89 88 80 72 70 73 77 83 96 100 120 140 143 136 128 129 130 140 142 158 169 163 167
84 82 83 85 85 87 85 85 89 94 103 115 124 124 110 104 99 94 93 91 89 87 83 78 73 55 44 15 30 92 108 154 149 153 146 141 130 137 152 169 168 155 153
83 82 85 85 87 86 85 86 87 88 94 108 133 144 124 107 101 96 94 93 92 88 83 79 75 67 55 39 14 351 303 282 237 184 164 153 133 133 154 142 135 131 130
82 80 84 84 87 86 84 85 84 82 85 89 98 119 330 324 118 110 102 98 93 83 72 69 65 48 30 32 57 85 67 172 166 167 174 165 134 123 122 71 57 74 85
81 82 81 83 86 87 87 84 85 84 80 79 81 81 57 28 351 333 301 109 82 69 62 56 40 30 17 357 19 65 88 123 147 152 143 144 132 93 73 62 57 58 55
76 80 79 80 82 83 85 88 82 85 87 84 77 71 77 53 332 327 305 294 298 354 359 42 34 349 339 342 334 329 328 316 161 151 143 127 101 93 85 77 81 83 80
59 72 74 77 76 79 80 83 88 88 88 86 84 78 57 25 347 308 307 306 299 298 309 344 317 321 324 328 328 327 327 326 305 282 135 100 94 90 92 87 90 87 86